WJA2282 CYYC-MMSD

Flight info

Callsign WJA2282
Flight time 4h 11m
Altitude 35000
Route UBVAL Q927 SEKOM DCT DBS J9 FFU DCT TBC DCT TUS J92 DASVU DCT ENEKO
Aircraft B737/M-SDE2E3FGHIRWXY/LB1

Departure

Time 2026-04-25 17:11
Airport Calgary International Airport (CYYC)

Arrival

Time 2026-04-25 21:22
Airport Los Cabos International Airport (MMSD)
Time Latitude Longitude Altitude Speed Heading
2026-04-25 16:31 51.12802 -114.00319 3558 ft 0 kts 273°
2026-04-25 16:53 51.12801 -114.00276 3558 ft 4 kts 266°
2026-04-25 16:53 51.12802 -114.00243 3558 ft 1 kts 269°
2026-04-25 16:53 51.12802 -114.00237 3558 ft 0 kts 269°
2026-04-25 16:58 51.12802 -114.00238 3558 ft 1 kts 268°
2026-04-25 16:58 51.12794 -114.00248 3556 ft 3 kts 206°
2026-04-25 16:59 51.12771 -114.00231 3558 ft 5 kts 143°
2026-04-25 16:59 51.12734 -114.00187 3558 ft 8 kts 144°
2026-04-25 16:59 51.12683 -114.00151 3557 ft 10 kts 176°
2026-04-25 16:59 51.12615 -114.00095 3557 ft 12 kts 107°
2026-04-25 17:00 51.12614 -113.99960 3558 ft 12 kts 90°
2026-04-25 17:00 51.12610 -113.99829 3558 ft 12 kts 104°
2026-04-25 17:00 51.12545 -113.99776 3555 ft 11 kts 180°
2026-04-25 17:00 51.12511 -113.99698 3558 ft 8 kts 84°
2026-04-25 17:01 51.12511 -113.99679 3558 ft 0 kts 90°
2026-04-25 17:04 51.12511 -113.99678 3558 ft 1 kts 90°
2026-04-25 17:05 51.12511 -113.99660 3558 ft 3 kts 90°
2026-04-25 17:05 51.12510 -113.99514 3559 ft 7 kts 89°
2026-04-25 17:05 51.12487 -113.99453 3559 ft 7 kts 157°
2026-04-25 17:06 51.12415 -113.99446 3559 ft 13 kts 179°
2026-04-25 17:06 51.12300 -113.99446 3556 ft 19 kts 182°
2026-04-25 17:06 51.12171 -113.99447 3555 ft 18 kts 179°
2026-04-25 17:06 51.12046 -113.99447 3559 ft 18 kts 180°
2026-04-25 17:07 51.11925 -113.99447 3559 ft 17 kts 180°
2026-04-25 17:07 51.11811 -113.99445 3559 ft 16 kts 179°
2026-04-25 17:07 51.11699 -113.99446 3559 ft 16 kts 181°
2026-04-25 17:07 51.11592 -113.99447 3557 ft 15 kts 180°
2026-04-25 17:08 51.11488 -113.99447 3558 ft 14 kts 179°
2026-04-25 17:08 51.11390 -113.99446 3556 ft 14 kts 180°
2026-04-25 17:08 51.11327 -113.99447 3559 ft 13 kts 180°
2026-04-25 17:08 51.11235 -113.99449 3559 ft 13 kts 180°
2026-04-25 17:09 51.11147 -113.99449 3557 ft 13 kts 180°
2026-04-25 17:09 51.11061 -113.99439 3559 ft 12 kts 160°
2026-04-25 17:09 51.11034 -113.99320 3559 ft 12 kts 84°
2026-04-25 17:09 51.11035 -113.99148 3561 ft 12 kts 90°
2026-04-25 17:10 51.11039 -113.99064 3563 ft 11 kts 68°
2026-04-25 17:10 51.11111 -113.99037 3562 ft 11 kts
2026-04-25 17:10 51.11265 -113.99036 3557 ft 51 kts
2026-04-25 17:10 51.11849 -113.99036 3565 ft 115 kts 360°
2026-04-25 17:11 51.12835 -113.99064 3574 ft 166 kts 356°
2026-04-25 17:11 51.14051 -113.99076 4130 ft 181 kts 358°
2026-04-25 17:11 51.15341 -113.99029 4985 ft 186 kts 359°
2026-04-25 17:11 51.16645 -113.98951 5763 ft 185 kts 358°
2026-04-25 17:12 51.17962 -113.98494 6151 ft 213 kts 24°
2026-04-25 17:12 51.19063 -113.96707 6621 ft 242 kts 57°
2026-04-25 17:12 51.19449 -113.94023 7411 ft 260 kts 87°
2026-04-25 17:12 51.18987 -113.91194 8086 ft 281 kts 114°
2026-04-25 17:13 51.17663 -113.88748 8577 ft 303 kts 146°
2026-04-25 17:13 51.16381 -113.87742 9074 ft 306 kts 165°
2026-04-25 17:13 51.13592 -113.87194 10186 ft 306 kts 182°
2026-04-25 17:13 51.11401 -113.87241 10558 ft 327 kts 185°
2026-04-25 17:14 51.09039 -113.87393 10780 ft 349 kts 185°
2026-04-25 17:14 51.06575 -113.87539 11362 ft 359 kts 185°
2026-04-25 17:14 51.04067 -113.87660 12130 ft 362 kts 184°
2026-04-25 17:14 51.01534 -113.87743 12945 ft 365 kts 183°
2026-04-25 17:15 50.99035 -113.87807 13765 ft 368 kts 183°
2026-04-25 17:15 50.96442 -113.87860 14473 ft 372 kts 182°
2026-04-25 17:15 50.93845 -113.87907 15182 ft 375 kts 182°
2026-04-25 17:15 50.91222 -113.87954 15898 ft 378 kts 183°
2026-04-25 17:16 50.88587 -113.88003 16599 ft 381 kts 183°
2026-04-25 17:16 50.85916 -113.88054 17306 ft 385 kts 183°
2026-04-25 17:16 50.83234 -113.88104 18009 ft 388 kts 183°
2026-04-25 17:16 50.80518 -113.88157 18628 ft 392 kts 183°
2026-04-25 17:17 50.77775 -113.88212 19186 ft 397 kts 183°
2026-04-25 17:17 50.74990 -113.88272 19711 ft 401 kts 182°
2026-04-25 17:17 50.72195 -113.88320 20313 ft 403 kts 182°
2026-04-25 17:17 50.69370 -113.88368 20790 ft 409 kts 182°
2026-04-25 17:18 50.66498 -113.88419 21265 ft 414 kts 182°
2026-04-25 17:18 50.63598 -113.88483 21767 ft 419 kts 181°
2026-04-25 17:18 50.60723 -113.87971 22208 ft 426 kts 167°
2026-04-25 17:18 50.57840 -113.86772 22742 ft 430 kts 165°
2026-04-25 17:19 50.54934 -113.85534 23223 ft 434 kts 166°
2026-04-25 17:19 50.51960 -113.84538 23677 ft 438 kts 171°
2026-04-25 17:19 50.48947 -113.83762 24122 ft 441 kts 172°
2026-04-25 17:19 50.45903 -113.83031 24533 ft 444 kts 171°
2026-04-25 17:20 50.42835 -113.82261 24906 ft 448 kts 170°
2026-04-25 17:20 50.39752 -113.81430 25304 ft 451 kts 169°
2026-04-25 17:20 50.36651 -113.80543 25711 ft 454 kts 169°
2026-04-25 17:20 50.33536 -113.79618 26101 ft 457 kts 168°
2026-04-25 17:21 50.30405 -113.78670 26480 ft 460 kts 168°
2026-04-25 17:21 50.27243 -113.77707 26882 ft 463 kts 168°
2026-04-25 17:21 50.24080 -113.76744 27333 ft 464 kts 168°
2026-04-25 17:21 50.20899 -113.75779 27698 ft 467 kts 168°
2026-04-25 17:22 50.17696 -113.74812 28022 ft 470 kts 167°
2026-04-25 17:22 50.15566 -113.74170 28239 ft 472 kts 167°
2026-04-25 17:22 50.11274 -113.72881 28686 ft 476 kts 167°
2026-04-25 17:22 50.08008 -113.71903 29021 ft 479 kts 167°
2026-04-25 17:23 50.04730 -113.70922 29361 ft 481 kts 167°
2026-04-25 17:23 50.01435 -113.69938 29783 ft 481 kts 167°
2026-04-25 17:23 49.98154 -113.68960 30244 ft 481 kts 167°
2026-04-25 17:23 49.94869 -113.67982 30656 ft 480 kts 167°
2026-04-25 17:24 49.91598 -113.67009 31108 ft 478 kts 167°
2026-04-25 17:24 49.88334 -113.66039 31565 ft 475 kts 168°
2026-04-25 17:24 49.85089 -113.65076 31990 ft 473 kts 168°
2026-04-25 17:24 49.81866 -113.64120 32384 ft 472 kts 168°
2026-04-25 17:25 49.78654 -113.63167 32867 ft 468 kts 169°
2026-04-25 17:25 49.75456 -113.62258 33290 ft 465 kts 169°
2026-04-25 17:25 49.72271 -113.61324 33595 ft 466 kts 168°
2026-04-25 17:25 49.69092 -113.60360 33871 ft 466 kts 169°
2026-04-25 17:26 49.65918 -113.59408 34201 ft 465 kts 169°
2026-04-25 17:26 49.62746 -113.58474 34490 ft 463 kts 169°
2026-04-25 17:26 49.59580 -113.57583 34766 ft 462 kts 170°
2026-04-25 17:26 49.56411 -113.56715 34941 ft 464 kts 170°
2026-04-25 17:27 49.50002 -113.55011 35118 ft 471 kts 170°
2026-04-25 17:27 49.45753 -113.53844 35094 ft 462 kts 169°
2026-04-25 17:28 49.40538 -113.52402 35113 ft 446 kts 169°
2026-04-25 17:28 49.37521 -113.51570 35131 ft 437 kts 170°
2026-04-25 17:28 49.31660 -113.49962 35120 ft 423 kts 170°
2026-04-25 17:29 49.25944 -113.48403 35111 ft 411 kts 170°
2026-04-25 17:29 49.20383 -113.46892 35110 ft 400 kts 170°
2026-04-25 17:30 49.14951 -113.45419 34995 ft 394 kts 170°
2026-04-25 17:30 49.12249 -113.44687 34846 ft 395 kts 170°
2026-04-25 17:30 49.09542 -113.43955 34676 ft 396 kts 170°
2026-04-25 17:31 49.06824 -113.43221 34498 ft 397 kts 170°
2026-04-25 17:31 49.04104 -113.42487 34356 ft 397 kts 169°
2026-04-25 17:31 49.01417 -113.41763 34248 ft 396 kts 169°
2026-04-25 17:31 48.98710 -113.41034 34173 ft 394 kts 169°
2026-04-25 17:32 48.93340 -113.39591 34051 ft 390 kts 169°
2026-04-25 17:32 48.90657 -113.38870 33827 ft 392 kts 169°
2026-04-25 17:32 48.87944 -113.38141 33535 ft 396 kts 169°
2026-04-25 17:33 48.85220 -113.37408 33404 ft 399 kts 169°
2026-04-25 17:33 48.82488 -113.36673 33748 ft 399 kts 169°
2026-04-25 17:33 48.76930 -113.35191 33520 ft 416 kts 169°
2026-04-25 17:34 48.74048 -113.34424 33065 ft 427 kts 169°
2026-04-25 17:34 48.71103 -113.33641 33133 ft 432 kts 169°
2026-04-25 17:34 48.65066 -113.32038 33123 ft 447 kts 169°
2026-04-25 17:35 48.58836 -113.30387 33126 ft 460 kts 169°
2026-04-25 17:35 48.52441 -113.28696 33121 ft 472 kts 169°
2026-04-25 17:36 48.45988 -113.26993 33408 ft 472 kts 170°
2026-04-25 17:36 48.42764 -113.26145 33938 ft 466 kts 170°
2026-04-25 17:36 48.39581 -113.25308 34364 ft 462 kts 170°
2026-04-25 17:37 48.36420 -113.24478 34698 ft 460 kts 170°
2026-04-25 17:37 48.33272 -113.23653 34981 ft 459 kts 170°
2026-04-25 17:37 48.30116 -113.22826 35114 ft 461 kts 170°
2026-04-25 17:37 48.26950 -113.21998 35101 ft 463 kts 170°
2026-04-25 17:38 48.22752 -113.20901 35097 ft 460 kts 171°
2026-04-25 17:38 48.14365 -113.18715 35096 ft 455 kts 171°
2026-04-25 17:39 48.08180 -113.17108 35092 ft 453 kts 171°
2026-04-25 17:39 48.01968 -113.15499 35095 ft 452 kts 171°
2026-04-25 17:40 47.95789 -113.13836 35088 ft 451 kts 171°
2026-04-25 17:40 47.89596 -113.12257 35080 ft 451 kts 171°
2026-04-25 17:41 47.83399 -113.10695 35084 ft 452 kts 171°
2026-04-25 17:41 47.77229 -113.09160 35091 ft 453 kts 172°
2026-04-25 17:42 47.70997 -113.07564 35074 ft 454 kts 171°
2026-04-25 17:42 47.64763 -113.05942 35079 ft 455 kts 171°
2026-04-25 17:43 47.58519 -113.04342 35069 ft 456 kts 172°
2026-04-25 17:43 47.52243 -113.02747 35089 ft 460 kts 172°
2026-04-25 17:44 47.49076 -113.01944 35200 ft 463 kts 172°
2026-04-25 17:44 47.45905 -113.01142 35422 ft 462 kts 172°
2026-04-25 17:44 47.42737 -113.00340 35700 ft 461 kts 172°
2026-04-25 17:44 47.39580 -112.99542 35942 ft 460 kts 172°
2026-04-25 17:45 47.36417 -112.98743 36127 ft 461 kts 172°
2026-04-25 17:45 47.35393 -112.98485 36192 ft 461 kts 172°
2026-04-25 17:45 47.30125 -112.97157 36497 ft 461 kts 172°
2026-04-25 17:45 47.26965 -112.96362 36764 ft 459 kts 172°
2026-04-25 17:46 47.23812 -112.95569 36997 ft 458 kts 172°
2026-04-25 17:46 47.20662 -112.94779 37063 ft 461 kts 172°
2026-04-25 17:46 47.14365 -112.93201 37062 ft 461 kts 172°
2026-04-25 17:47 47.08053 -112.91623 37075 ft 457 kts 172°
2026-04-25 17:47 47.01778 -112.90058 37071 ft 455 kts 172°
2026-04-25 17:48 46.92481 -112.87746 37078 ft 452 kts 172°
2026-04-25 17:49 46.86283 -112.86210 37075 ft 452 kts 172°
2026-04-25 17:49 46.80076 -112.84676 37072 ft 453 kts 172°
2026-04-25 17:50 46.73849 -112.83140 37075 ft 455 kts 172°
2026-04-25 17:50 46.67596 -112.81601 37063 ft 456 kts 172°
2026-04-25 17:51 46.61317 -112.80059 37064 ft 458 kts 172°
2026-04-25 17:51 46.55054 -112.78525 37051 ft 459 kts 172°
2026-04-25 17:52 46.48738 -112.76982 37064 ft 460 kts 172°
2026-04-25 17:52 46.42423 -112.75441 37053 ft 460 kts 172°
2026-04-25 17:53 46.36096 -112.73902 37050 ft 460 kts 172°
2026-04-25 17:53 46.29824 -112.72379 37052 ft 459 kts 173°
2026-04-25 17:54 46.23526 -112.70854 37048 ft 459 kts 173°
2026-04-25 17:54 46.17235 -112.69334 37049 ft 458 kts 173°
2026-04-25 17:55 46.10953 -112.67820 37046 ft 457 kts 173°
2026-04-25 17:55 46.04719 -112.66321 37044 ft 456 kts 173°
2026-04-25 17:56 45.98466 -112.64821 37043 ft 455 kts 173°
2026-04-25 17:56 45.92212 -112.63324 37034 ft 454 kts 173°
2026-04-25 17:57 45.85977 -112.61835 37051 ft 454 kts 173°
2026-04-25 17:57 45.79749 -112.60351 37041 ft 453 kts 173°
2026-04-25 17:58 45.73564 -112.58881 37042 ft 453 kts 173°
2026-04-25 17:58 45.67336 -112.57403 37033 ft 453 kts 173°
2026-04-25 17:59 45.62162 -112.56179 37030 ft 452 kts 173°
2026-04-25 17:59 45.55954 -112.54712 37019 ft 452 kts 173°
2026-04-25 18:00 45.49753 -112.53250 36996 ft 451 kts 173°
2026-04-25 18:00 45.43546 -112.51983 36984 ft 450 kts 174°
2026-04-25 18:01 45.37356 -112.50479 36975 ft 451 kts 173°
2026-04-25 18:01 45.31212 -112.48940 37009 ft 451 kts 173°
2026-04-25 18:02 45.25028 -112.47453 37015 ft 451 kts 173°
2026-04-25 18:02 45.18835 -112.46005 37012 ft 451 kts 174°
2026-04-25 18:03 45.12641 -112.44568 36999 ft 450 kts 174°
2026-04-25 18:03 45.06458 -112.43135 37013 ft 449 kts 174°
2026-04-25 18:04 45.00324 -112.41716 37022 ft 449 kts 174°
2026-04-25 18:04 44.94146 -112.40288 37022 ft 449 kts 174°
2026-04-25 18:05 44.87975 -112.38864 37022 ft 448 kts 174°
2026-04-25 18:05 44.81815 -112.37447 37023 ft 448 kts 174°
2026-04-25 18:06 44.75698 -112.36044 37024 ft 448 kts 174°
2026-04-25 18:06 44.69536 -112.34631 37020 ft 447 kts 175°
2026-04-25 18:07 44.63397 -112.33228 37022 ft 447 kts 175°
2026-04-25 18:07 44.57242 -112.31824 37025 ft 447 kts 175°
2026-04-25 18:08 44.51144 -112.30437 37021 ft 447 kts 175°
2026-04-25 18:08 44.45011 -112.29044 37018 ft 446 kts 175°
2026-04-25 18:09 44.38865 -112.27651 37025 ft 446 kts 175°
2026-04-25 18:09 44.32735 -112.26265 37012 ft 446 kts 175°
2026-04-25 18:10 44.26596 -112.24878 37012 ft 447 kts 175°
2026-04-25 18:10 44.20453 -112.23495 37019 ft 447 kts 175°
2026-04-25 18:11 44.14357 -112.22125 36999 ft 447 kts 175°
2026-04-25 18:11 44.08213 -112.20771 37007 ft 446 kts 178°
2026-04-25 18:12 44.02058 -112.20073 36998 ft 442 kts 182°
2026-04-25 18:12 43.95909 -112.19780 36980 ft 442 kts 183°
2026-04-25 18:13 43.89751 -112.19454 36988 ft 442 kts 182°
2026-04-25 18:13 43.83635 -112.19048 36989 ft 442 kts 182°
2026-04-25 18:14 43.74403 -112.18373 36975 ft 442 kts 183°
2026-04-25 18:14 43.68288 -112.17922 36983 ft 442 kts 183°
2026-04-25 18:15 43.62141 -112.17473 36993 ft 441 kts 183°
2026-04-25 18:15 43.56006 -112.17028 36952 ft 441 kts 184°
2026-04-25 18:16 43.49879 -112.16582 36965 ft 440 kts 184°
2026-04-25 18:17 43.40710 -112.15920 36972 ft 439 kts 184°
2026-04-25 18:17 43.34651 -112.15484 36969 ft 438 kts 184°
2026-04-25 18:18 43.28562 -112.15045 36979 ft 438 kts 184°
2026-04-25 18:18 43.22482 -112.14609 36991 ft 437 kts 184°
2026-04-25 18:19 43.16392 -112.14172 36988 ft 437 kts 184°
2026-04-25 18:19 43.10316 -112.13737 36984 ft 437 kts 185°
2026-04-25 18:20 43.04258 -112.13304 37004 ft 435 kts 185°
2026-04-25 18:20 42.98259 -112.12877 36980 ft 434 kts 185°
2026-04-25 18:21 42.92233 -112.12448 36991 ft 433 kts 185°
2026-04-25 18:21 42.86216 -112.12021 36981 ft 432 kts 185°
2026-04-25 18:22 42.80202 -112.11596 36955 ft 432 kts 185°
2026-04-25 18:22 42.74185 -112.11171 36978 ft 433 kts 185°
2026-04-25 18:23 42.68210 -112.10750 36992 ft 433 kts 185°
2026-04-25 18:23 42.62179 -112.10327 36978 ft 434 kts 185°
2026-04-25 18:24 42.56136 -112.09902 36978 ft 435 kts 185°
2026-04-25 18:24 42.50073 -112.09478 36974 ft 436 kts 185°
2026-04-25 18:25 42.44010 -112.09052 36969 ft 436 kts 185°
2026-04-25 18:25 42.37954 -112.08626 36964 ft 435 kts 185°
2026-04-25 18:26 42.31966 -112.08207 36959 ft 433 kts 185°
2026-04-25 18:26 42.25960 -112.07787 36946 ft 430 kts 185°
2026-04-25 18:27 42.19997 -112.07372 36966 ft 428 kts 185°
2026-04-25 18:27 42.14046 -112.06962 36974 ft 427 kts 185°
2026-04-25 18:28 42.08107 -112.06552 36962 ft 427 kts 185°
2026-04-25 18:28 42.02162 -112.06142 36956 ft 427 kts 186°
2026-04-25 18:29 41.93244 -112.05528 36967 ft 428 kts 186°
2026-04-25 18:30 41.81378 -112.04713 36963 ft 429 kts 186°
2026-04-25 18:30 41.75409 -112.04304 36955 ft 429 kts 186°
2026-04-25 18:31 41.69447 -112.03895 36966 ft 428 kts 186°
2026-04-25 18:31 41.63484 -112.03489 36956 ft 429 kts 186°
2026-04-25 18:32 41.57516 -112.03083 36965 ft 429 kts 186°
2026-04-25 18:32 41.51553 -112.02676 36961 ft 428 kts 186°
2026-04-25 18:33 41.45645 -112.02274 36895 ft 427 kts 186°
2026-04-25 18:33 41.39716 -112.01872 36922 ft 426 kts 186°
2026-04-25 18:34 41.33776 -112.01473 36926 ft 427 kts 186°
2026-04-25 18:34 41.27855 -112.01072 36936 ft 426 kts 186°
2026-04-25 18:35 41.21950 -112.00672 36941 ft 424 kts 186°
2026-04-25 18:35 41.16053 -112.00276 36950 ft 424 kts 186°
2026-04-25 18:36 41.10142 -111.99881 36972 ft 425 kts 186°
2026-04-25 18:36 41.04253 -111.99487 36942 ft 426 kts 186°
2026-04-25 18:37 40.98314 -111.99090 36932 ft 428 kts 186°
2026-04-25 18:37 40.92363 -111.98692 36937 ft 429 kts 186°
2026-04-25 18:38 40.86383 -111.98293 36914 ft 431 kts 186°
2026-04-25 18:38 40.80400 -111.97880 36939 ft 432 kts 186°
2026-04-25 18:39 40.74389 -111.97444 36903 ft 432 kts 186°
2026-04-25 18:39 40.68415 -111.97012 36904 ft 433 kts 186°
2026-04-25 18:40 40.62399 -111.96581 36903 ft 433 kts 186°
2026-04-25 18:40 40.56377 -111.96150 36898 ft 432 kts 186°
2026-04-25 18:41 40.50378 -111.95722 36895 ft 431 kts 186°
2026-04-25 18:41 40.44420 -111.95298 36890 ft 430 kts 186°
2026-04-25 18:42 40.40428 -111.95014 36904 ft 429 kts 186°
2026-04-25 18:42 40.32503 -111.94454 36921 ft 428 kts 186°
2026-04-25 18:43 40.26554 -111.93999 36899 ft 429 kts 185°
2026-04-25 18:43 40.20621 -111.93100 36930 ft 433 kts 182°
2026-04-25 18:44 40.14652 -111.91992 36924 ft 433 kts 181°
2026-04-25 18:44 40.08679 -111.90907 36919 ft 432 kts 182°
2026-04-25 18:45 40.02728 -111.89871 36870 ft 431 kts 182°
2026-04-25 18:45 39.96783 -111.88860 36863 ft 430 kts 182°
2026-04-25 18:46 39.90853 -111.87857 36856 ft 430 kts 182°
2026-04-25 18:46 39.84913 -111.86854 36842 ft 429 kts 182°
2026-04-25 18:47 39.79033 -111.85860 36847 ft 429 kts 182°
2026-04-25 18:47 39.73119 -111.84863 36838 ft 428 kts 182°
2026-04-25 18:48 39.67216 -111.83869 36843 ft 428 kts 182°
2026-04-25 18:48 39.61313 -111.82877 36824 ft 427 kts 182°
2026-04-25 18:49 39.55406 -111.81886 36828 ft 427 kts 182°
2026-04-25 18:49 39.49557 -111.80906 36827 ft 426 kts 182°
2026-04-25 18:50 39.43674 -111.79923 36812 ft 426 kts 182°
2026-04-25 18:50 39.37793 -111.78940 36824 ft 426 kts 183°
2026-04-25 18:51 39.33860 -111.78285 36813 ft 427 kts 183°
2026-04-25 18:51 39.27002 -111.77145 36805 ft 428 kts 183°
2026-04-25 18:52 39.21101 -111.76165 36797 ft 428 kts 183°
2026-04-25 18:52 39.15180 -111.75183 36791 ft 429 kts 183°
2026-04-25 18:53 39.09268 -111.74204 36796 ft 429 kts 183°
2026-04-25 18:53 39.03339 -111.73224 36764 ft 429 kts 182°
2026-04-25 18:54 38.94454 -111.71758 36784 ft 429 kts 182°
2026-04-25 18:55 38.88561 -111.70788 36770 ft 429 kts 182°
2026-04-25 18:55 38.82633 -111.69814 36743 ft 429 kts 182°
2026-04-25 18:56 38.76713 -111.68842 36758 ft 428 kts 182°
2026-04-25 18:56 38.70803 -111.67873 36766 ft 428 kts 182°
2026-04-25 18:57 38.64885 -111.66905 36755 ft 428 kts 182°
2026-04-25 18:57 38.58989 -111.65942 36750 ft 426 kts 183°
2026-04-25 18:58 38.53103 -111.64983 36765 ft 426 kts 183°
2026-04-25 18:58 38.44322 -111.63556 36764 ft 425 kts 182°
2026-04-25 18:59 38.32580 -111.61652 36763 ft 424 kts 183°
2026-04-25 19:00 38.23795 -111.60232 36773 ft 424 kts 183°
2026-04-25 19:01 38.15012 -111.58816 36757 ft 424 kts 182°
2026-04-25 19:01 38.09141 -111.57873 36763 ft 425 kts 182°
2026-04-25 19:02 38.00354 -111.56460 36755 ft 427 kts 182°
2026-04-25 19:03 37.92519 -111.55202 36747 ft 425 kts 182°
2026-04-25 19:03 37.85648 -111.54102 36740 ft 425 kts 182°
2026-04-25 19:04 37.76907 -111.52706 36706 ft 423 kts 182°
2026-04-25 19:05 37.65235 -111.50848 36737 ft 421 kts 183°
2026-04-25 19:06 37.59452 -111.49930 36713 ft 420 kts 183°
2026-04-25 19:06 37.50795 -111.48557 36742 ft 418 kts 183°
2026-04-25 19:07 37.42116 -111.47189 36746 ft 421 kts 183°
2026-04-25 19:08 37.33356 -111.45810 36714 ft 424 kts 183°
2026-04-25 19:09 37.22582 -111.44113 36753 ft 427 kts 183°
2026-04-25 19:10 37.12776 -111.42571 36770 ft 426 kts 183°
2026-04-25 19:10 37.06899 -111.41650 36811 ft 425 kts 183°
2026-04-25 19:11 37.01024 -111.40732 36852 ft 424 kts 183°
2026-04-25 19:11 36.95199 -111.39822 36849 ft 424 kts 183°
2026-04-25 19:12 36.89346 -111.38910 36821 ft 423 kts 183°
2026-04-25 19:12 36.83512 -111.38001 36838 ft 421 kts 183°
2026-04-25 19:13 36.77702 -111.37099 36821 ft 420 kts 183°
2026-04-25 19:13 36.71900 -111.36199 36796 ft 420 kts 183°
2026-04-25 19:14 36.66145 -111.35307 36768 ft 418 kts 183°
2026-04-25 19:14 36.60371 -111.34414 36750 ft 418 kts 183°
2026-04-25 19:15 36.54602 -111.33524 36750 ft 418 kts 183°
2026-04-25 19:15 36.48820 -111.32634 36761 ft 419 kts 183°
2026-04-25 19:16 36.43057 -111.31748 36761 ft 420 kts 183°
2026-04-25 19:16 36.37235 -111.30852 36759 ft 421 kts 183°
2026-04-25 19:17 36.31409 -111.29957 36752 ft 422 kts 183°
2026-04-25 19:17 36.25579 -111.29063 36759 ft 422 kts 183°
2026-04-25 19:18 36.19742 -111.28168 36755 ft 422 kts 183°
2026-04-25 19:18 36.13920 -111.27278 36743 ft 421 kts 184°
2026-04-25 19:19 36.08146 -111.26509 36759 ft 418 kts 186°
2026-04-25 19:19 36.02362 -111.26009 36754 ft 416 kts 187°
2026-04-25 19:20 35.96586 -111.25534 36745 ft 415 kts 187°
2026-04-25 19:20 35.90823 -111.25031 36754 ft 415 kts 186°
2026-04-25 19:21 35.85066 -111.24508 36758 ft 415 kts 186°
2026-04-25 19:21 35.76438 -111.23715 36738 ft 413 kts 187°
2026-04-25 19:22 35.70711 -111.23188 36756 ft 412 kts 187°
2026-04-25 19:23 35.62131 -111.22404 36766 ft 412 kts 187°
2026-04-25 19:23 35.53587 -111.21625 36737 ft 412 kts 187°
2026-04-25 19:24 35.47868 -111.21104 36770 ft 412 kts 187°
2026-04-25 19:25 35.36457 -111.20067 36793 ft 412 kts 187°
2026-04-25 19:25 35.30728 -111.19547 36763 ft 413 kts 187°
2026-04-25 19:26 35.24996 -111.19027 36790 ft 413 kts 187°
2026-04-25 19:26 35.19260 -111.18509 36826 ft 414 kts 187°
2026-04-25 19:27 35.15453 -111.18165 36825 ft 415 kts 187°
2026-04-25 19:27 35.07738 -111.17470 36803 ft 416 kts 187°
2026-04-25 19:28 35.01958 -111.16946 36840 ft 416 kts 187°
2026-04-25 19:28 34.96207 -111.16429 36868 ft 417 kts 187°
2026-04-25 19:29 34.90416 -111.15909 36866 ft 418 kts 187°
2026-04-25 19:29 34.84613 -111.15389 36871 ft 418 kts 188°
2026-04-25 19:30 34.78819 -111.14867 36878 ft 417 kts 188°
2026-04-25 19:30 34.73042 -111.14348 36900 ft 415 kts 188°
2026-04-25 19:31 34.67321 -111.13837 36871 ft 414 kts 188°
2026-04-25 19:31 34.61574 -111.13327 36896 ft 413 kts 188°
2026-04-25 19:32 34.55841 -111.12816 36902 ft 413 kts 188°
2026-04-25 19:32 34.52004 -111.12475 36914 ft 413 kts 188°
2026-04-25 19:33 34.44361 -111.11796 36948 ft 413 kts 188°
2026-04-25 19:33 34.38658 -111.11290 36975 ft 413 kts 188°
2026-04-25 19:34 34.32919 -111.10781 36972 ft 413 kts 188°
2026-04-25 19:34 34.27169 -111.10272 36984 ft 414 kts 188°
2026-04-25 19:35 34.21426 -111.09766 36994 ft 415 kts 188°
2026-04-25 19:35 34.15673 -111.09258 36978 ft 414 kts 188°
2026-04-25 19:36 34.09916 -111.08750 36949 ft 414 kts 188°
2026-04-25 19:36 34.04210 -111.08247 36922 ft 413 kts 188°
2026-04-25 19:37 33.98473 -111.07741 36894 ft 412 kts 188°
2026-04-25 19:37 33.92766 -111.07240 36896 ft 411 kts 188°
2026-04-25 19:38 33.87042 -111.06740 36870 ft 411 kts 189°
2026-04-25 19:38 33.81335 -111.06241 36879 ft 412 kts 189°
2026-04-25 19:39 33.75603 -111.05742 36872 ft 413 kts 188°
2026-04-25 19:39 33.69890 -111.05244 36866 ft 414 kts 189°
2026-04-25 19:40 33.64145 -111.04741 36831 ft 414 kts 189°
2026-04-25 19:40 33.59368 -111.04324 36848 ft 414 kts 189°
2026-04-25 19:41 33.53622 -111.03824 36866 ft 414 kts 189°
2026-04-25 19:41 33.48837 -111.03409 36850 ft 415 kts 189°
2026-04-25 19:42 33.42094 -111.02825 36853 ft 415 kts 189°
2026-04-25 19:42 33.36333 -111.02325 36834 ft 415 kts 189°
2026-04-25 19:43 33.30575 -111.01826 36839 ft 415 kts 189°
2026-04-25 19:43 33.24862 -111.01334 36847 ft 414 kts 189°
2026-04-25 19:44 33.21145 -111.01013 36845 ft 413 kts 189°
2026-04-25 19:45 33.18457 -111.00779 36860 ft 412 kts 189°
2026-04-25 19:45 33.12741 -111.00284 36834 ft 410 kts 189°
2026-04-25 19:46 33.07049 -110.99796 36852 ft 410 kts 189°
2026-04-25 19:46 33.01382 -110.99311 36870 ft 411 kts 189°
2026-04-25 19:47 32.95670 -110.98822 36866 ft 411 kts 189°
2026-04-25 19:47 32.89950 -110.98331 36854 ft 412 kts 189°
2026-04-25 19:48 32.84235 -110.97841 36865 ft 412 kts 189°
2026-04-25 19:48 32.78516 -110.97352 36885 ft 412 kts 189°
2026-04-25 19:49 32.73762 -110.96947 36898 ft 412 kts 189°
2026-04-25 19:49 32.67065 -110.96376 36897 ft 412 kts 189°
2026-04-25 19:50 32.58536 -110.95647 36903 ft 410 kts 189°
2026-04-25 19:51 32.52835 -110.95162 36914 ft 410 kts 189°
2026-04-25 19:51 32.47150 -110.94681 36914 ft 410 kts 189°
2026-04-25 19:52 32.41450 -110.94198 36882 ft 409 kts 189°
2026-04-25 19:52 32.35773 -110.93718 36910 ft 410 kts 189°
2026-04-25 19:53 32.30121 -110.93241 36927 ft 410 kts 189°
2026-04-25 19:53 32.24427 -110.92759 36933 ft 410 kts 189°
2026-04-25 19:54 32.18727 -110.92278 36939 ft 410 kts 189°
2026-04-25 19:54 32.13016 -110.91796 36957 ft 410 kts 189°
2026-04-25 19:55 32.07357 -110.91489 36960 ft 400 kts 195°
2026-04-25 19:55 32.01864 -110.91875 36953 ft 396 kts 197°
2026-04-25 19:56 31.96322 -110.92248 36919 ft 400 kts 195°
2026-04-25 19:56 31.90751 -110.92437 36888 ft 401 kts 195°
2026-04-25 19:57 31.85189 -110.92638 36862 ft 399 kts 195°
2026-04-25 19:57 31.79666 -110.92876 36845 ft 399 kts 195°
2026-04-25 19:58 31.74114 -110.93130 36825 ft 399 kts 195°
2026-04-25 19:58 31.68557 -110.93388 36837 ft 400 kts 195°
2026-04-25 19:59 31.62978 -110.93644 36923 ft 400 kts 195°
2026-04-25 19:59 31.57398 -110.93900 36952 ft 401 kts 195°
2026-04-25 20:00 31.51823 -110.94154 36980 ft 400 kts 195°
2026-04-25 20:00 31.46298 -110.94406 37008 ft 400 kts 195°
2026-04-25 20:01 31.37943 -110.94788 36968 ft 400 kts 195°
2026-04-25 20:01 31.32389 -110.95041 36972 ft 399 kts 195°
2026-04-25 20:02 31.26840 -110.95295 36956 ft 398 kts 195°
2026-04-25 20:02 31.21312 -110.95551 36929 ft 400 kts 195°
2026-04-25 20:03 31.15737 -110.95808 36890 ft 401 kts 195°
2026-04-25 20:03 31.10154 -110.96063 36847 ft 401 kts 195°
2026-04-25 20:04 31.04582 -110.96317 36837 ft 401 kts 195°
2026-04-25 20:04 30.98994 -110.96570 36851 ft 401 kts 195°
2026-04-25 20:05 30.93422 -110.96827 36847 ft 403 kts 195°
2026-04-25 20:05 30.87812 -110.97080 36851 ft 402 kts 195°
2026-04-25 20:06 30.82216 -110.97335 36848 ft 402 kts 194°
2026-04-25 20:06 30.76602 -110.97606 36848 ft 404 kts 195°
2026-04-25 20:07 30.70972 -110.97890 36832 ft 405 kts 195°
2026-04-25 20:07 30.65342 -110.98171 36864 ft 402 kts 194°
2026-04-25 20:08 30.59770 -110.98448 36851 ft 404 kts 195°
2026-04-25 20:08 30.54157 -110.98728 36844 ft 403 kts 194°
2026-04-25 20:09 30.48536 -110.99003 36837 ft 405 kts 194°
2026-04-25 20:09 30.42894 -110.99248 36844 ft 406 kts 194°
2026-04-25 20:10 30.37237 -110.99488 36846 ft 407 kts 194°
2026-04-25 20:10 30.31615 -110.99730 36811 ft 407 kts 194°
2026-04-25 20:11 30.25951 -110.99975 36841 ft 407 kts 194°
2026-04-25 20:11 30.20289 -111.00220 36853 ft 408 kts 194°
2026-04-25 20:12 30.14616 -111.00466 36853 ft 408 kts 194°
2026-04-25 20:12 30.10844 -111.00629 36852 ft 408 kts 194°
2026-04-25 20:13 30.03252 -111.00979 36847 ft 408 kts 194°
2026-04-25 20:13 29.97571 -111.01244 36853 ft 408 kts 194°
2026-04-25 20:14 29.91896 -111.01507 36857 ft 408 kts 194°
2026-04-25 20:14 29.86258 -111.01768 36866 ft 408 kts 194°
2026-04-25 20:15 29.80573 -111.02030 36866 ft 408 kts 194°
2026-04-25 20:15 29.74903 -111.02291 36865 ft 407 kts 194°
2026-04-25 20:16 29.69235 -111.02553 36865 ft 408 kts 194°
2026-04-25 20:16 29.63589 -111.02812 36867 ft 408 kts 194°
2026-04-25 20:17 29.57906 -111.03073 36873 ft 409 kts 194°
2026-04-25 20:17 29.52211 -111.03325 36869 ft 410 kts 193°
2026-04-25 20:18 29.46502 -111.03577 36861 ft 410 kts 193°
2026-04-25 20:18 29.40798 -111.03828 36886 ft 411 kts 193°
2026-04-25 20:19 29.35072 -111.04081 36902 ft 412 kts 193°
2026-04-25 20:19 29.29333 -111.04334 36910 ft 413 kts 193°
2026-04-25 20:20 29.23588 -111.04586 36891 ft 413 kts 193°
2026-04-25 20:20 29.17879 -111.04836 36924 ft 413 kts 193°
2026-04-25 20:21 29.12134 -111.05089 36940 ft 413 kts 193°
2026-04-25 20:21 29.06337 -111.05074 36930 ft 422 kts 186°
2026-04-25 20:22 29.02448 -111.04621 36943 ft 425 kts 184°
2026-04-25 20:22 28.94577 -111.03565 36921 ft 425 kts 185°
2026-04-25 20:23 28.88739 -111.02891 36911 ft 424 kts 186°
2026-04-25 20:23 28.82864 -111.02250 36901 ft 423 kts 186°
2026-04-25 20:24 28.76994 -111.01608 36881 ft 423 kts 186°
2026-04-25 20:24 28.71135 -111.00964 36882 ft 423 kts 186°
2026-04-25 20:25 28.65274 -111.00320 36879 ft 422 kts 185°
2026-04-25 20:25 28.59455 -110.99682 36889 ft 422 kts 185°
2026-04-25 20:26 28.53592 -110.99040 36884 ft 423 kts 185°
2026-04-25 20:26 28.47737 -110.98399 36896 ft 423 kts 185°
2026-04-25 20:27 28.41867 -110.97757 36866 ft 424 kts 185°
2026-04-25 20:27 28.35994 -110.97115 36889 ft 424 kts 185°
2026-04-25 20:28 28.30126 -110.96473 36884 ft 423 kts 185°
2026-04-25 20:28 28.24266 -110.95830 36897 ft 423 kts 185°
2026-04-25 20:29 28.19389 -110.95295 36899 ft 423 kts 185°
2026-04-25 20:29 28.13532 -110.94653 36896 ft 423 kts 185°
2026-04-25 20:30 28.07660 -110.94010 36949 ft 423 kts 185°
2026-04-25 20:30 28.01817 -110.93370 36951 ft 423 kts 185°
2026-04-25 20:31 27.95947 -110.92727 36956 ft 424 kts 184°
2026-04-25 20:31 27.90058 -110.91896 36957 ft 428 kts 182°
2026-04-25 20:32 27.84165 -110.90960 36940 ft 428 kts 182°
2026-04-25 20:32 27.78263 -110.90037 36939 ft 428 kts 182°
2026-04-25 20:33 27.72360 -110.89136 36928 ft 428 kts 182°
2026-04-25 20:33 27.67441 -110.88394 36918 ft 429 kts 182°
2026-04-25 20:34 27.60559 -110.87358 36885 ft 429 kts 182°
2026-04-25 20:34 27.54642 -110.86468 36907 ft 429 kts 182°
2026-04-25 20:35 27.48721 -110.85579 36913 ft 430 kts 182°
2026-04-25 20:35 27.42782 -110.84687 36909 ft 430 kts 182°
2026-04-25 20:36 27.36838 -110.83796 36911 ft 431 kts 182°
2026-04-25 20:36 27.30934 -110.82911 36897 ft 431 kts 182°
2026-04-25 20:37 27.24987 -110.82020 36910 ft 430 kts 182°
2026-04-25 20:37 27.19052 -110.81133 36909 ft 431 kts 182°
2026-04-25 20:38 27.13102 -110.80245 36907 ft 431 kts 182°
2026-04-25 20:38 27.07160 -110.79358 36911 ft 431 kts 182°
2026-04-25 20:39 27.01223 -110.78473 36904 ft 430 kts 182°
2026-04-25 20:39 26.96282 -110.77738 36913 ft 430 kts 182°
2026-04-25 20:40 26.89344 -110.76706 36901 ft 430 kts 182°
2026-04-25 20:40 26.83432 -110.75828 36896 ft 430 kts 182°
2026-04-25 20:41 26.77497 -110.74947 36888 ft 430 kts 182°
2026-04-25 20:41 26.71560 -110.74066 36903 ft 430 kts 182°
2026-04-25 20:42 26.65625 -110.73187 36907 ft 430 kts 182°
2026-04-25 20:42 26.59722 -110.72314 36908 ft 430 kts 182°
2026-04-25 20:43 26.53785 -110.71437 36907 ft 430 kts 182°
2026-04-25 20:43 26.47849 -110.70560 36897 ft 430 kts 182°
2026-04-25 20:44 26.41917 -110.69683 36903 ft 430 kts 182°
2026-04-25 20:44 26.35975 -110.68807 36904 ft 430 kts 182°
2026-04-25 20:45 26.30075 -110.67938 36908 ft 430 kts 182°
2026-04-25 20:45 26.24138 -110.67064 36906 ft 430 kts 182°
2026-04-25 20:46 26.18199 -110.66190 36907 ft 430 kts 182°
2026-04-25 20:46 26.12256 -110.65316 36906 ft 431 kts 182°
2026-04-25 20:47 26.06312 -110.64443 36904 ft 431 kts 182°
2026-04-25 20:47 26.00369 -110.63572 36904 ft 431 kts 182°
2026-04-25 20:48 25.94433 -110.62703 36874 ft 430 kts 182°
2026-04-25 20:48 25.88494 -110.61833 36894 ft 430 kts 182°
2026-04-25 20:49 25.82599 -110.60971 36905 ft 430 kts 182°
2026-04-25 20:49 25.76661 -110.60104 36904 ft 430 kts 182°
2026-04-25 20:50 25.70721 -110.59238 36905 ft 430 kts 182°
2026-04-25 20:50 25.64779 -110.58372 36886 ft 430 kts 182°
2026-04-25 20:51 25.58883 -110.57513 36898 ft 430 kts 182°
2026-04-25 20:51 25.52945 -110.56649 36906 ft 430 kts 182°
2026-04-25 20:52 25.48015 -110.55933 36903 ft 430 kts 182°
2026-04-25 20:52 25.41074 -110.54925 36902 ft 430 kts 182°
2026-04-25 20:53 25.35175 -110.54069 36891 ft 430 kts 182°
2026-04-25 20:53 25.29270 -110.52693 36897 ft 451 kts 163°
2026-04-25 20:54 25.23920 -110.48784 36908 ft 475 kts 144°
2026-04-25 20:54 25.19364 -110.43399 36916 ft 481 kts 139°
2026-04-25 20:55 25.14905 -110.37883 36905 ft 480 kts 141°
2026-04-25 20:55 25.10272 -110.32595 36886 ft 479 kts 142°
2026-04-25 20:56 25.05603 -110.27360 36902 ft 479 kts 142°
2026-04-25 20:56 25.03298 -110.24750 36618 ft 484 kts 142°
2026-04-25 20:56 25.00945 -110.22069 36097 ft 485 kts 141°
2026-04-25 20:57 24.98620 -110.19401 35605 ft 482 kts 141°
2026-04-25 20:57 24.96313 -110.16745 35186 ft 477 kts 141°
2026-04-25 20:57 24.94029 -110.14114 34750 ft 473 kts 141°
2026-04-25 20:57 24.91761 -110.11507 34332 ft 468 kts 141°
2026-04-25 20:58 24.89512 -110.08925 33875 ft 465 kts 140°
2026-04-25 20:58 24.87276 -110.06364 33392 ft 462 kts 140°
2026-04-25 20:58 24.85058 -110.03824 32927 ft 457 kts 140°
2026-04-25 20:58 24.82867 -110.01318 32505 ft 453 kts 140°
2026-04-25 20:59 24.80690 -109.98828 32090 ft 448 kts 140°
2026-04-25 20:59 24.78535 -109.96365 31680 ft 444 kts 140°
2026-04-25 20:59 24.76401 -109.93927 31277 ft 440 kts 140°
2026-04-25 20:59 24.74281 -109.91507 30876 ft 436 kts 140°
2026-04-25 21:00 24.72207 -109.89142 30485 ft 433 kts 141°
2026-04-25 21:00 24.71499 -109.88334 30351 ft 432 kts 141°
2026-04-25 21:00 24.66004 -109.82072 29196 ft 422 kts 140°
2026-04-25 21:01 24.63977 -109.79763 28776 ft 417 kts 140°
2026-04-25 21:01 24.61973 -109.77482 28334 ft 413 kts 140°
2026-04-25 21:01 24.59993 -109.75230 27919 ft 408 kts 140°
2026-04-25 21:01 24.58047 -109.73019 27517 ft 404 kts 140°
2026-04-25 21:02 24.56104 -109.70811 27103 ft 400 kts 140°
2026-04-25 21:02 24.54176 -109.68622 26696 ft 397 kts 140°
2026-04-25 21:02 24.52264 -109.66452 26292 ft 394 kts 139°
2026-04-25 21:02 24.50366 -109.64298 25889 ft 391 kts 139°
2026-04-25 21:03 24.48479 -109.62158 25490 ft 388 kts 139°
2026-04-25 21:03 24.46630 -109.60062 25097 ft 385 kts 139°
2026-04-25 21:03 24.44772 -109.57956 24701 ft 383 kts 139°
2026-04-25 21:03 24.42924 -109.55863 24301 ft 380 kts 139°
2026-04-25 21:04 24.41083 -109.53779 23892 ft 379 kts 139°
2026-04-25 21:04 24.39251 -109.51704 23490 ft 377 kts 138°
2026-04-25 21:04 24.37427 -109.49641 23004 ft 375 kts 138°
2026-04-25 21:04 24.35618 -109.47595 22570 ft 372 kts 138°
2026-04-25 21:05 24.33811 -109.45563 22134 ft 369 kts 140°
2026-04-25 21:05 24.31726 -109.44036 21689 ft 355 kts 163°
2026-04-25 21:05 24.29372 -109.43433 21337 ft 343 kts 180°
2026-04-25 21:05 24.27033 -109.43585 20913 ft 334 kts 194°
2026-04-25 21:06 24.24775 -109.44159 20475 ft 332 kts 198°
2026-04-25 21:06 24.22584 -109.44808 20033 ft 331 kts 198°
2026-04-25 21:06 24.20360 -109.45445 19614 ft 330 kts 197°
2026-04-25 21:06 24.18850 -109.45835 19347 ft 329 kts 196°
2026-04-25 21:07 24.15914 -109.46558 18782 ft 323 kts 195°
2026-04-25 21:07 24.13725 -109.47096 18242 ft 322 kts 195°
2026-04-25 21:07 24.11538 -109.47641 17616 ft 322 kts 195°
2026-04-25 21:07 24.09360 -109.48188 17093 ft 318 kts 195°
2026-04-25 21:08 24.07214 -109.48731 16654 ft 315 kts 196°
2026-04-25 21:08 24.05079 -109.49274 16251 ft 313 kts 196°
2026-04-25 21:08 24.02964 -109.49813 15852 ft 312 kts 195°
2026-04-25 21:08 24.00859 -109.50349 15465 ft 310 kts 195°
2026-04-25 21:09 23.96663 -109.51419 14681 ft 308 kts 195°
2026-04-25 21:09 23.94575 -109.51951 14289 ft 308 kts 195°
2026-04-25 21:09 23.92516 -109.52475 13886 ft 308 kts 195°
2026-04-25 21:10 23.90434 -109.53014 13457 ft 307 kts 197°
2026-04-25 21:10 23.88365 -109.53665 12906 ft 310 kts 200°
2026-04-25 21:10 23.86332 -109.54416 12492 ft 308 kts 201°
2026-04-25 21:10 23.84317 -109.55195 12084 ft 306 kts 202°
2026-04-25 21:11 23.82314 -109.55971 11689 ft 304 kts 201°
2026-04-25 21:11 23.80323 -109.56732 11294 ft 303 kts 201°
2026-04-25 21:11 23.78336 -109.57483 10903 ft 301 kts 201°
2026-04-25 21:11 23.76360 -109.58224 10510 ft 300 kts 201°
2026-04-25 21:12 23.74392 -109.58957 10161 ft 297 kts 201°
2026-04-25 21:12 23.72465 -109.59670 9986 ft 288 kts 201°
2026-04-25 21:12 23.70567 -109.60372 9616 ft 286 kts 201°
2026-04-25 21:12 23.69957 -109.60597 9501 ft 286 kts 201°
2026-04-25 21:13 23.66844 -109.61746 8899 ft 282 kts 201°
2026-04-25 21:13 23.64986 -109.62432 8545 ft 280 kts 201°
2026-04-25 21:13 23.63144 -109.63111 8197 ft 279 kts 201°
2026-04-25 21:13 23.61314 -109.63789 7865 ft 277 kts 201°
2026-04-25 21:14 23.59489 -109.64459 7508 ft 277 kts 200°
2026-04-25 21:14 23.57658 -109.65132 7153 ft 277 kts 201°
2026-04-25 21:14 23.55828 -109.65806 6796 ft 277 kts 201°
2026-04-25 21:14 23.54000 -109.66487 6440 ft 277 kts 200°
2026-04-25 21:15 23.52173 -109.67156 6069 ft 277 kts 200°
2026-04-25 21:15 23.50347 -109.67821 5709 ft 276 kts 200°
2026-04-25 21:15 23.48554 -109.68476 5371 ft 272 kts 200°
2026-04-25 21:15 23.46782 -109.69135 5023 ft 266 kts 200°
2026-04-25 21:16 23.45047 -109.69764 4689 ft 259 kts 201°
2026-04-25 21:16 23.43357 -109.70379 4356 ft 252 kts 200°
2026-04-25 21:16 23.41727 -109.70979 4222 ft 242 kts 200°
2026-04-25 21:16 23.40155 -109.71562 4105 ft 234 kts 200°
2026-04-25 21:17 23.38637 -109.72122 3998 ft 226 kts 199°
2026-04-25 21:17 23.37669 -109.72477 3950 ft 217 kts 199°
2026-04-25 21:17 23.36286 -109.72984 3849 ft 203 kts 199°
2026-04-25 21:17 23.34577 -109.73611 3672 ft 189 kts 198°
2026-04-25 21:18 23.33357 -109.74047 3512 ft 184 kts 193°
2026-04-25 21:18 23.32503 -109.74090 3368 ft 181 kts 171°
2026-04-25 21:18 23.31288 -109.73882 3165 ft 173 kts 171°
2026-04-25 21:18 23.30110 -109.73732 2976 ft 171 kts 172°
2026-04-25 21:19 23.28933 -109.73596 2778 ft 172 kts 172°
2026-04-25 21:19 23.27755 -109.73472 2546 ft 167 kts 172°
2026-04-25 21:19 23.26620 -109.73350 2363 ft 162 kts 173°
2026-04-25 21:19 23.25503 -109.73227 2199 ft 161 kts 170°
2026-04-25 21:20 23.24439 -109.73098 2074 ft 146 kts 174°
2026-04-25 21:20 23.23770 -109.73051 2001 ft 143 kts 175°
2026-04-25 21:20 23.22456 -109.72920 1731 ft 139 kts 171°
2026-04-25 21:20 23.21500 -109.72827 1534 ft 137 kts 172°
2026-04-25 21:21 23.20576 -109.72737 1354 ft 138 kts 168°
2026-04-25 21:21 23.19630 -109.72588 1250 ft 137 kts 171°
2026-04-25 21:21 23.18680 -109.72454 1011 ft 136 kts 172°
2026-04-25 21:21 23.17730 -109.72366 758 ft 139 kts 170°
2026-04-25 21:22 23.16785 -109.72259 481 ft 136 kts 172°
2026-04-25 21:22 23.15891 -109.72142 377 ft 120 kts 174°
2026-04-25 21:22 23.15211 -109.72076 354 ft 76 kts 175°
2026-04-25 21:22 23.14972 -109.71995 349 ft 24 kts 144°
2026-04-25 21:23 23.14869 -109.71915 341 ft 14 kts 144°
2026-04-25 21:23 23.14821 -109.71852 339 ft 9 kts 82°
2026-04-25 21:23 23.14873 -109.71832 339 ft 9 kts 351°
2026-04-25 21:23 23.14932 -109.71839 347 ft 8 kts 358°
2026-04-25 21:24 23.14990 -109.71843 347 ft 8 kts 355°
2026-04-25 21:24 23.15049 -109.71851 351 ft 10 kts 353°
2026-04-25 21:24 23.15125 -109.71860 355 ft 12 kts 353°
2026-04-25 21:24 23.15219 -109.71870 355 ft 15 kts 354°
2026-04-25 21:25 23.15326 -109.71882 361 ft 16 kts 355°
2026-04-25 21:25 23.15442 -109.71893 364 ft 19 kts 355°
2026-04-25 21:25 23.15584 -109.71910 364 ft 21 kts 353°
2026-04-25 21:25 23.15725 -109.71928 364 ft 20 kts 353°
2026-04-25 21:26 23.15861 -109.71945 370 ft 19 kts 353°
2026-04-25 21:26 23.15993 -109.71961 368 ft 19 kts 353°
2026-04-25 21:26 23.16091 -109.71971 370 ft 9 kts 355°
2026-04-25 21:26 23.16140 -109.71938 368 ft 9 kts 75°
2026-04-25 21:27 23.16109 -109.71887 367 ft 9 kts 163°
2026-04-25 21:27 23.16049 -109.71881 366 ft 6 kts 175°
2026-04-25 21:27 23.16034 -109.71854 369 ft 5 kts 82°
2026-04-25 21:27 23.16036 -109.71827 367 ft 1 kts 83°